Regional Weather Roundup
Issued by NWS

Home | Current Version | Previous Version | Graphics & Text | Print | Product List | Glossary On
Versions: 1 2 3 4 5 6 7 8 9 10 11 12 13 14 15 16 17 18 19 20 21 22 23 24 25 26 27 28 29 30 31 32 33 34 35 36 37 38 39 40 41 42 43 44 45 46 47 48 49 50
000
ASUS43 KLMK 230210
RWRKY
KENTUCKY REGIONAL WEATHER ROUNDUP
NATIONAL WEATHER SERVICE LOUISVILLE KY
1000 PM EDT TUE JUL 22 2014

NOTE "FAIR" INDICATES FEW OR NO CLOUDS BELOW 12,000 FEET
WITH NO SIGNIFICANT WEATHER AND/OR OBSTRUCTIONS TO VISIBILITY.

KYZ001>023-026-027-061>063-070>075-230300-
WESTERN AND SOUTH CENTRAL KENTUCKY

CITY           SKY/WX    TMP DP  RH WIND       PRES   REMARKS
PADUCAH        FAIR      79  71  76 CALM      30.05R
HENDERSON      FAIR     N/A N/A N/A MISG        N/A
OWENSBORO      FAIR      83  72  69 NW5       30.05R
HOPKINSVILLE   FAIR      83  73  69 S5        30.05R
BOWLING GREEN  FAIR      84  68  58 S5        30.05R
GLASGOW        FAIR      80  68  67 CALM      30.07R
$$

KYZ024-025-028>034-038-045-046-053-230300-
NORTH CENTRAL KENTUCKY

CITY           SKY/WX    TMP DP  RH WIND       PRES   REMARKS
LOUISVILLE/SDF FAIR      86  71  60 SW5       30.03R HX  91
LOUISVILLE/LOU FAIR      86  70  58 CALM      30.04R HX  90
FORT KNOX      PTCLDY    77  74  92 CALM      30.04R
$$

KYZ035>037-039>044-047>052-055>060-089>105-230300-
NORTHEAST KENTUCKY

CITY           SKY/WX    TMP DP  RH WIND       PRES   REMARKS
LEXINGTON      FAIR      82  69  64 S6        30.07R
COVINGTON      FAIR      78  68  71 CALM      30.05R
FRANKFORT      FAIR      78  72  81 CALM      30.05R
$$

KYZ054-064>069-076>088-106>120-230300-
SOUTHEAST KENTUCKY

CITY           SKY/WX    TMP DP  RH WIND       PRES   REMARKS
JACKSON        FAIR      81  68  64 CALM      30.10R
LONDON         MOCLDY    78  72  81 CALM      30.11R
SOMERSET       CLOUDY    73  72  94 CALM      30.10R
MIDDLESBORO    MOCLDY    76  70  81 SW3       30.12R
MONTICELLO     FAIR      75  74  97 CALM      30.11R
$$



USA.gov is the U.S. government's official web portal to all federal, state and local government web resources and services.